Other Public Products
Issued by NWS Grand Forks, ND

Home | Current Version | Previous Version | Text Only | Print | Product List | Glossary On
Versions: 1 2 3 4 5 6 7 8 9 10 11 12 13 14 15 16 17 18 19 20 21 22 23 24 25 26 27 28 29 30 31 32 33 34 35 36 37 38 39 40 41 42 43 44 45 46 47 48 49 50
000
FPUS83 KFGF 291010
OPUFGF
PRAIRIE TO PINES WEATHER ROUNDUP
NATIONAL WEATHER SERVICE EASTERN NORTH DAKOTA/GRAND FORKS ND
500 AM CDT FRI AUG 29 2014

 **SATELLITE DATA USED TO AUGMENT SKY COVER AT AUTOMATED STATIONS**
 *****  WEATHER ACROSS EASTERN NORTH DAKOTA  *****

CITY           SKY/WX    TMP DP  RH WIND       PRES   REMARKS
GRAND FORKS    CLOUDY    67  64  90 S8        29.77S
GRAND FORKS AF CLOUDY    66  66 100 SW8       29.79S
GRAND CITY NWS   N/A     64 N/A N/A S5          N/A
BUXTON         NOT AVBL
DEVILS LAKE    CLOUDY    66  61  82 S13       29.76S
FARGO          CLOUDY    66  64  93 CALM      29.77F
WAHPETON ARPT  CLOUDY    64  63  94 S7        29.79R
$$

 *****  WEATHER ACROSS CENTRAL AND WESTERN NORTH DAKOTA  *****

CITY           SKY/WX    TMP DP  RH WIND       PRES   REMARKS
JAMESTOWN      FOG       65  64  97 SW6       29.79S VSB 1
BISMARCK       CLOUDY    63  63 100 S5        29.80F
MINOT          CLEAR     63  59  87 NW14      29.76R
MINOT AFB      CLEAR     64  63  97 NW17      29.76R
GARRISON         N/A     64  62  93 NW8       29.79R
WILLISTON      MOCLDY    62  54  74 N12G23    29.86S
DICKINSON      PTCLDY    63  55  75 NW18      29.84R
HETTINGER      PTCLDY    54  53  97 CALM      29.84F FOG
$$

 *****  OTHER OBSERVATIONS NORTHEAST NORTH DAKOTA  *****

CITY           SKY/WX    TMP DP  RH WIND       PRES   REMARKS
WALHALLA         N/A     66  66 100 CALM      29.78S
LANGDON        CLOUDY    66  64  94 S3        29.78S
CAVALIER       CLOUDY    66  64  94 CALM      29.79R
GRAFTON        CLOUDY    66  64  94 S8        29.79R
CANDO          CLOUDY    64  64 100 S8        29.75F
FORT TOTTEN      N/A     66  65  95 S7        29.95S
ROLLA          CLOUDY    64  64 100 S5        29.76F
RUGBY          FAIR      63  63 100 S8        29.72F
 ***** THE ABOVE OBSERVATIONS ARE NON NWS ARE NOT QUALITY
        CONTROLLED AND MAY MIS-REPORT RAIN FOR SNOW...
$$

 *****  OTHER OBSERVATIONS SOUTHEAST NORTH DAKOTA *****

CITY           SKY/WX    TMP DP  RH WIND       PRES   REMARKS
COOPERSTOWN    NOT AVBL
VALLEY CITY    CLOUDY    64  64 100 CALM      29.79S FOG
OAKES          FOG       64  64 100 CALM      29.79S VSB 1/2
GWINNER        CLOUDY    64  64 100 CALM      29.80S VSB 1/4
SHEYENNE NWR     N/A     65  65  99 CALM      29.95S
BUFFALO        NOT AVBL
WYNDMERE       NOT AVBL
 ***** THE ABOVE OBSERVATIONS ARE NON NWS ARE NOT QUALITY
       CONTROLLED AND MAY MIS-REPORT RAIN FOR SNOW...
$$

  *****  WEATHER ACROSS NORTHERN MINNESOTA  *****

CITY           SKY/WX    TMP DP  RH WIND       PRES   REMARKS
FLAG ISLAND    CLOUDY    66  63  88 S7        29.79S
WARROAD        CLOUDY    63  59  88 CALM      29.81S
ROSEAU         MOCLDY    64  57  77 S6        29.80S
HALLOCK        CLOUDY    66  64  94 SW6       29.78S
THF RVR FALLS  CLOUDY    63  61  94 SE3       29.80F
HALSTAD          N/A     65  63  93 E2          N/A
FOSSTON        CLOUDY    63  61  94 CALM      29.81F
BAUDETTE       CLOUDY    63  60  90 VRB3      29.81F
WASKISH        CLOUDY    64  63  94 CALM      29.83S
CROOKSTON      CLOUDY    64  63  94 CALM      29.80S
$$
  *****  WEATHER ACROSS CENTRAL AND WEST MINNESOTA  *****

CITY           SKY/WX    TMP DP  RH WIND       PRES   REMARKS
BEMIDJI        LGT RAIN  63  62  97 SE3       29.82F
PARK RAPIDS    LGT RAIN  64  63  96 CALM      29.81F FOG
WADENA         CLOUDY    63  63 100 CALM      29.80F FOG
DETROIT LAKES  CLOUDY    64  63  94 SE3       29.81F
MOORHEAD       CLOUDY    66  66 100 CALM      29.78F FOG
FERGUS FALLS   CLOUDY    64  64 100 S6        29.79S FOG
ELBOW LAKE     FOG       64  64  99 SE6       29.78F VSB 1
MORRIS MN      FOG       64  64 100 SE3       29.78S VSB 1/4
STAPLES        CLOUDY    63  63 100 SE3       29.81F FOG
WHEATON        CLOUDY    63  63 100 E3        29.79F FOG
$$
  *****  WEATHER ELSEWHERE ACROSS MINNESOTA  *****

CITY           SKY/WX    TMP DP  RH WIND       PRES   REMARKS
DULUTH         CLOUDY    61  58  90 E8        29.87S
INTRNTL FALLS  CLOUDY    61  59  93 SE7       29.84F
ELY            CLOUDY    57  55  94 CALM      29.90S
CLOQUET        CLOUDY    61  59  94 E5        29.86F FOG
BRAINERD       CLOUDY    63  63 100 SE5       29.82S FOG
HIBBING        CLOUDY    61  58  90 SE3       29.87S
ALEXANDRIA     CLOUDY    64  63  96 SE3       29.81F FOG
SAINT CLOUD    TSTM      67  65  93 E8        29.79F FOG
MINNEAPOLIS    CLOUDY    68  67  96 SE8       29.81F
$$

  *****  WEATHER ACROSS SOUTH DAKOTA  *****

CITY           SKY/WX    TMP DP  RH WIND       PRES   REMARKS
SIOUX FALLS    CLOUDY    71  68  90 SW3       29.77S
BROOKINGS      NOT AVBL
WATERTOWN      FOG       66  66 100 N3        29.79S VSB 1/2
HURON          CLOUDY    68  67  96 N5        29.76F FOG
SISSETON         N/A     65  65 100 N3        29.77F
ABERDEEN       CLOUDY    65  65 100 CALM      29.79S
MITCHELL       FOG       69  68  96 W7        29.77S VSB 1/4
PIERRE         CLOUDY    65  65 100 N5        29.80S
MOBRIDGE       FOG       64  64 100 SW7       29.79S VSB 1/2
RAPID CITY     CLEAR     60  51  72 W10       29.89S
$$

  *****  SOME WEATHER IN NEARBY STATES *****

CITY           SKY/WX    TMP DP  RH WIND       PRES   REMARKS
GLASGOW MT     MOCLDY    58  56  93 NW9       29.96R
GREAT FALLS MT FAIR      49  48  97 SW6       30.08F
CHEYENNE WY    CLEAR     51  42  71 NW8       30.11F
SCOTTSBLUFF NE CLEAR     50  49  96 NW5       29.98S
OMAHA NE       CLOUDY    72  69  90 S8        29.80S
DES MOINES IA  MOCLDY    69  65  86 SE8       29.85F
DAVENPORT IA   PTCLDY    70  67  90 S9        29.92F
CHICAGO IL     CLOUDY    71  63  75 S6        29.97S
EAU CLAIRE WI  HVY RAIN  59  58  96 SE9       29.89F
LA CROSSE WI   LGT RAIN  66  63  90 E8        29.88F
$$

  *****  SOME NATIONAL WEATHER *****

CITY           SKY/WX    TMP DP  RH WIND       PRES   REMARKS
LA GUARDIA NY  PTCLDY    64  50  60 N6        30.12R
RALEIGH NC     CLOUDY    73  69  87 NE7       30.06R
ATLANTA GA     PTCLDY    69  61  75 CALM      30.05R
NEW ORLEANS LA PTCLDY    79  73  82 E5        29.93S
OKLAHOMA CITY  MOCLDY    68  63  84 S5        29.92R
ALBUQUERQUE NM CLEAR     64  44  48 S5        30.15S
SALT LAKE CITY FAIR      64  47  53 S9        30.07S
LOS ANGELES CA FAIR      67  62  84 CALM      29.88F
BOISE ID       FAIR      65  45  48 CALM      29.97R
SEATTLE WA     CLOUDY    62  58  86 SW3       30.00S
$$

*** WEATHER ACROSS MANITOBA...SASKATCHEWAN AND ONTARIO ***
                ***ONTARIO***

CITY           SKY/WX    TMP DP  RH WIND       PRES   REMARKS
GERALDTON      MOCLDY    52  48  87 S3        29.95F
THUNDER BAY    CLOUDY    55  54  94 NE5       29.93S
SIOUX LOOKOUT  CLOUDY    64  59  82 S9        29.83S
TORONTO        MOCLDY    54  48  82 NW5       30.17R
BIG TROUT LK   CLOUDY    61  59  94 W8        29.66R
PICKLE LAKE    NOT AVBL
DRYDEN         CLOUDY    64  61  88 S13G22    29.83S
KENORA         CLOUDY    66  61  82 S9        29.81S
$$
                *** MANITOBA***

CITY           SKY/WX    TMP DP  RH WIND       PRES   REMARKS
BRANDON        MOCLDY    61  59  94 E8        29.78R
DAUPHIN        CLOUDY    59  55  88 N13       29.82R
ISLAND LAKE    NOT AVBL
PILOT MOUND      N/A     64  64 100 SE8         N/A
THE PAS        PTCLDY    54  46  76 NW13      29.89R
THOMPSON       MOCLDY    48  46  93 W6        29.77R
WINNIPEG       MOCLDY    66  64  94 S8        29.76S
LYNN LAKE      CLEAR     45  43  93 MISG      29.86R
CHURCHILL      MOCLDY    50  45  81 N9        29.67R
GILLAM         MOCLDY    54  54 100 SW5       29.68R
$$
                ***SASKATCHEWAN***

CITY           SKY/WX    TMP DP  RH WIND       PRES   REMARKS
ESTEVAN        MOCLDY    59  57  94 NW8       29.86R
KINDERSLEY     PTCLDY    45  43  93 NW2       30.02S
LLOYDMINSTER   CLEAR     45  41  87 SE3       30.00S
PRINCE ALBERT  CLEAR     43  41  93 N2        30.00R
REGINA         LGT RAIN  55  54  94 N7        29.94R


USA.gov is the U.S. government's official web portal to all federal, state and local government web resources and services.